Tracking 27086 objects as of 22-Mar-2023
HD Live streaming from Space Station
objects crossing your sky now

STARLINK-2236

Track STARLINK-2236 now!
10-day predictions
STARLINK-2236 is classified as:


NORAD ID: 48582
Int'l Code: 2021-041AF
Perigee: 553.4 km
Apogee: 555.3 km
Inclination: 53.1 °
Period: 95.6 minutes
Semi major axis: 6925 km
RCS: Unknown
Launch date: May 15, 2021
Source: United States (US)
Launch site: AIR FORCE EASTERN TEST RANGE (AFETR)
Your satellite tracking list
Your tracking list is empty




NASA's NSSDC Master Catalog

Two Line Element Set (TLE):
1 48582U 21041AF  23080.84807410  .00001038  00000-0  88588-4 0  9993
2 48582  53.0521 282.3360 0001311  85.2722 274.8416 15.06401368102336
Source of the keplerian elements: AFSPC